Location: Paderno d�Adda
(45.6667°N, 9.4333°E)
Time: 09:32:34
(UTC+00:00)

ATLAS 3B R/B - Pass Details

Date: 25 January 2021
Orbit: 1006 x 1189 km, 63.8° (Epoch: 07 March)

Event Time Altitude Azimuth Distance (km) Brightness Sun altitude
Rises 16:44:55 0° 313° (NW) 3,895 6.0 -5.0°
Reaches altitude 10° 16:48:03 10° 301° (WNW) 2,965 5.6 -5.5°
Maximum altitude 16:53:28 24° 250° (WSW) 2,127 5.5 -6.4°
Drops below altitude 10° 16:59:04 10° 199° (SSW) 3,049 5.7 -7.3°
Sets 17:02:21 0° 187° (S) 4,029 6.1 -7.9°
